Flag for Germany Weather past 2 weeks in Osnabrück, Lower Saxony, Germany

Now
63 °F

Clear.


Feels Like: 63 °F
Forecast: 58 / 79 °F
Wind: 2 mph from East

Location: Muenster / Osnabrueck

Current Time: Jul 31, 2014 at 11:28:50 PM

Latest Report: Jul 31, 2014 at 10:50 PM


Visibility: 10 mi

Pressure: 29.92 "Hg

Humidity: 88%

Dew point: 59 °F

Location of OsnabrückLocation

Historic Weather in Osnabrück — Graph

°F

Osnabrück temperature yesterday

Maximum temperature yesterday: 75 °F (at 3:20 PM)
Minimum temperature yesterday: 63 °F (at 7:50 AM)
Average temperature yesterday: 69 °F

Past Weeks' High & Low Weather Summary

 TemperatureHumidityPressure
High93 °F (Jul 19, 2:20 PM)100% (Jul 17, 2:50 AM)30.18 "Hg (Jul 17, 2:50 AM)
Low55 °F (Jul 17, 4:50 AM)19% (Jul 19, 3:20 PM)29.74 "Hg (Jul 20, 4:50 AM)
Average71 °F73%29.95 "Hg
* Reported Jul 16 10:20 PM — Jul 31 10:20 PM, Osnabrück, Weather by CustomWeather, © 2014

Note: Actual official high and low records may vary slightly from our data, if they occured in-between our weather recording intervals... More about our weather records

Advertising

Osnabrück weather history for previous 24 hours

 ConditionsComfort  
Time TempWeatherWind HumidityBarometerVisibility
10:20 PM
Jul 31
64 °FSunny.1 mph78%29.92 "Hg10 mi
9:50 PM64 °FSunny.1 mph83%29.92 "Hg10 mi
9:20 PM66 °FSunny.1 mph78%29.92 "Hg10 mi
8:50 PM68 °FSunny.2 mph69%29.92 "Hg10 mi
8:20 PM73 °FSunny.2 mph57%29.92 "Hg10 mi
7:50 PM75 °FSunny.2 mph47%29.92 "Hg10 mi
7:20 PM75 °FSunny.2 mph47%29.92 "Hg10 mi
6:50 PM75 °FSunny.5 mph44%29.92 "Hg10 mi
6:20 PM75 °FSunny.2 mph47%29.95 "Hg10 mi
5:50 PM75 °FPassing clouds.5 mph44%29.95 "HgN/A
5:20 PM75 °FScattered clouds.3 mph47%29.95 "HgN/A
4:50 PM77 °FScattered clouds.2 mph44%29.95 "HgN/A
4:20 PM75 °FScattered clouds.5 mph44%29.95 "HgN/A
3:50 PM75 °FScattered clouds.5 mph47%29.95 "HgN/A
3:20 PM75 °FScattered clouds.5 mph47%29.98 "HgN/A
2:50 PM73 °FScattered clouds.2 mph50%29.98 "HgN/A
2:20 PM73 °FPassing clouds.5 mph50%29.98 "HgN/A
1:50 PM72 °FPassing clouds.3 mph53%29.98 "HgN/A
1:20 PM72 °FScattered clouds.3 mph61%29.98 "HgN/A
12:50 PM70 °FScattered clouds.3 mph57%29.98 "HgN/A
12:20 PM72 °FScattered clouds.3 mph57%29.98 "HgN/A
11:50 AM68 °FScattered clouds.5 mph64%30.01 "HgN/A
11:20 AM68 °FPassing clouds.3 mph64%30.01 "HgN/A
10:50 AM68 °FPassing clouds.3 mph69%30.01 "HgN/A
10:20 AM66 °FPassing clouds.5 mph73%30.01 "HgN/A
9:50 AM64 °FPassing clouds.3 mph73%30.01 "HgN/A
9:20 AM63 °FPassing clouds.5 mph77%30.01 "HgN/A
8:50 AM63 °FPassing clouds.3 mph77%30.01 "HgN/A
8:20 AM61 °FSunny.3 mph88%30.01 "Hg10 mi
7:50 AM59 °FClear.3 mph94%30.01 "Hg6 mi
7:20 AM59 °FClear.3 mph88%30.01 "Hg6 mi
6:50 AM57 °FFog.2 mph94%29.98 "Hg5 mi
6:20 AM57 °FSleet. Fog.3 mph100%29.98 "HgN/A
5:50 AM55 °FFog.3 mph100%29.98 "HgN/A
5:20 AM55 °FClear.2 mph94%29.98 "Hg10 mi
4:50 AM55 °FClear.3 mph100%29.98 "Hg10 mi
4:20 AM55 °FClear.3 mph100%29.98 "Hg10 mi
3:50 AM57 °FClear.2 mph94%29.98 "Hg10 mi
3:20 AM57 °FClear.2 mph94%29.98 "Hg10 mi
2:50 AM59 °FClear.3 mph88%29.98 "Hg10 mi
2:20 AM61 °FPassing clouds.3 mph88%29.98 "HgN/A
1:50 AM61 °FPassing clouds.5 mph88%29.98 "HgN/A
1:20 AM63 °FPassing clouds.6 mph83%29.98 "HgN/A
12:50 AM63 °FPassing clouds.5 mph88%29.98 "HgN/A
12:20 AM63 °FPassing clouds.5 mph88%29.95 "HgN/A
11:50 PM
Jul 30
64 °FPassing clouds.5 mph83%29.95 "HgN/A
11:20 PM64 °FPassing clouds.3 mph78%29.95 "HgN/A
Weather by CustomWeather, © 2014

See weather overviewHow to use our weather pages